Date String (YYYY-MM-DD hh:mm:ss) UTC,Instrument flags,absolute air pressure of the measurement (hPa),sample flow rate (lpm),inlet stack bypass flow (lpm),air temperature of the measurement (°C),ambient temperature measured by the external sensor (°C),aerosol sample conditioner tube jacket temperature (°C),OPC LED temperature (°C),internal box temperature (°C),relative humidity of the measurement (%),span deviation,mass concentration of particles derived from Lorenz-Mie calculation of OPC scattering (μg/m³),mass concentration of particles derived from Lorenz-Mie calculation of OPC scattering (μg/m³),mass concentration of particles derived from Lorenz-Mie calculation of OPC scattering (μg/m³)
DateTimeUTC,F1_M11,P_M11,Q1_M11,Q2_M11,T1_M11,T2_M11,T3_M11,T4_M11,T5_M11,U1_M11,ZSPAN_M11,X0_M11,X2_M11,X1_M11
2023-10-15 04:00:00,SystemResetWarning,0838.2,5.00,000.00,027.2,025.6,000.0,035.7,028.9,13.9,0000.0,0010.16,0004.74,0004.40
2023-10-15 04:01:00,SystemResetWarning,0838.2,5.00,000.00,027.2,025.6,000.0,035.7,028.9,14.0,0000.0,0010.09,0004.77,0004.43
2023-10-15 04:02:00,SystemResetWarning,0838.2,5.00,000.00,027.2,025.6,000.0,035.7,028.8,14.0,0000.0,0010.32,0004.79,0004.44
2023-10-15 04:03:00,SystemResetWarning,0838.2,5.00,000.00,027.2,025.6,000.0,035.7,028.8,14.0,0000.0,0010.64,0004.84,0004.48
2023-10-15 04:04:00,SystemResetWarning,0838.1,5.00,000.00,027.2,025.6,000.0,035.7,028.8,14.0,0000.0,0010.63,0004.87,0004.50
2023-10-15 04:05:00,SystemResetWarning,0838.2,5.00,000.00,027.2,025.6,000.0,035.7,028.8,14.0,0000.0,0010.35,0004.89,0004.52
2023-10-15 04:06:00,SystemResetWarning,0838.2,5.00,000.00,027.2,025.6,000.0,035.7,028.8,14.0,0000.0,0009.76,0004.90,0004.54
2023-10-15 04:07:00,SystemResetWarning,0838.1,5.00,000.00,027.2,025.6,000.0,035.7,028.8,13.9,0000.0,0008.82,0004.94,0004.56
2023-10-15 04:08:00,SystemResetWarning,0838.2,5.00,000.00,027.2,025.6,000.0,035.7,028.8,13.9,0000.0,0008.41,0004.96,0004.57
2023-10-15 04:09:00,SystemResetWarning,0838.2,5.01,000.00,027.1,025.6,000.0,035.7,028.8,14.0,0000.0,0008.94,0005.00,0004.59
2023-10-15 04:10:00,SystemResetWarning,0838.2,5.00,000.00,027.1,025.6,000.0,035.7,028.8,14.0,0000.0,0009.18,0005.04,0004.60
2023-10-15 04:11:00,SystemResetWarning,0838.2,5.00,000.00,027.1,025.6,000.0,035.7,028.8,14.0,0000.0,0009.26,0005.05,0004.60
2023-10-15 04:12:00,SystemResetWarning,0838.2,5.01,000.00,027.1,025.6,000.0,035.7,028.8,14.0,0000.0,0009.41,0005.02,0004.58
2023-10-15 04:13:00,SystemResetWarning,0838.2,5.01,000.00,027.1,025.6,000.0,035.6,028.8,13.9,0000.0,0009.28,0005.04,0004.58
2023-10-15 04:14:00,SystemResetWarning,0838.2,5.00,000.00,027.1,025.6,000.0,035.6,028.8,13.9,0000.0,0008.97,0005.01,0004.56
2023-10-15 04:15:00,SystemResetWarning,0838.2,5.00,000.00,027.1,025.6,000.0,035.6,028.8,13.9,0000.0,0008.81,0004.96,0004.55
2023-10-15 04:16:00,SystemResetWarning,0838.2,5.00,000.00,027.1,025.6,000.0,035.6,028.8,13.9,0000.0,0008.81,0004.96,0004.54
2023-10-15 04:17:00,SystemResetWarning,0838.1,5.01,000.00,027.1,025.6,000.0,035.6,028.8,13.9,0000.0,0009.17,0004.95,0004.55
2023-10-15 04:18:00,SystemResetWarning,0838.1,5.00,000.00,027.1,025.5,000.0,035.6,028.8,13.9,0000.0,0009.27,0004.98,0004.57
2023-10-15 04:19:00,SystemResetWarning,0838.2,5.00,000.00,027.1,025.5,000.0,035.6,028.8,13.9,0000.0,0009.24,0004.98,0004.58
2023-10-15 04:20:00,SystemResetWarning,0838.1,5.00,000.00,027.1,025.6,000.0,035.6,028.8,13.9,0000.0,0008.76,0004.99,0004.59
2023-10-15 04:21:00,SystemResetWarning,0838.1,5.00,000.00,027.1,025.5,000.0,035.6,028.8,13.9,0000.0,0008.68,0004.99,0004.59
2023-10-15 04:22:00,SystemResetWarning,0838.1,5.00,000.00,027.1,025.5,000.0,035.6,028.8,14.0,0000.0,0009.01,0005.00,0004.59
2023-10-15 04:23:00,SystemResetWarning,0838.2,5.00,000.00,027.1,025.5,000.0,035.6,028.8,14.0,0000.0,0009.06,0005.02,0004.60
2023-10-15 04:24:00,SystemResetWarning,0838.2,5.00,000.00,027.1,025.5,000.0,035.6,028.7,14.0,0000.0,0009.40,0005.05,0004.63
2023-10-15 04:25:00,SystemResetWarning,0838.2,4.99,000.00,027.1,025.5,000.0,035.6,028.8,14.0,0000.0,0010.12,0005.08,0004.66
2023-10-15 04:26:00,SystemResetWarning,0838.3,5.00,000.00,027.1,025.5,000.0,035.6,028.7,14.0,0000.0,0010.36,0005.12,0004.67
2023-10-15 04:27:00,SystemResetWarning,0838.3,4.99,000.00,027.1,025.5,000.0,035.6,028.7,14.0,0000.0,0010.40,0005.14,0004.68
2023-10-15 04:28:00,SystemResetWarning,0838.3,5.00,000.00,027.1,025.5,000.0,035.6,028.7,14.0,0000.0,0010.25,0005.16,0004.69
2023-10-15 04:29:00,SystemResetWarning,0838.3,5.01,000.00,027.1,025.5,000.0,035.6,028.7,13.9,0000.0,0010.06,0005.13,0004.69
2023-10-15 04:30:00,SystemResetWarning,0838.3,5.01,000.00,027.1,025.5,000.0,035.6,028.7,13.9,0000.0,0009.99,0005.11,0004.70
2023-10-15 04:31:00,SystemResetWarning,0838.4,5.00,000.00,027.1,025.5,000.0,035.6,028.7,13.9,0000.0,0009.98,0005.12,0004.72
2023-10-15 04:32:00,SystemResetWarning,0838.4,5.00,000.00,027.1,025.5,000.0,035.5,028.7,13.9,0000.0,0009.88,0005.13,0004.75
2023-10-15 04:33:00,SystemResetWarning,0838.4,4.99,000.00,027.0,025.5,000.0,035.5,028.7,13.9,0000.0,0009.54,0005.12,0004.76
2023-10-15 04:34:00,SystemResetWarning,0838.4,5.00,000.00,027.0,025.5,000.0,035.6,028.7,13.9,0000.0,0009.28,0005.11,0004.77
2023-10-15 04:35:00,SystemResetWarning,0838.4,5.00,000.00,027.0,025.5,000.0,035.6,028.7,13.9,0001.3,0008.82,0005.09,0004.76
2023-10-15 04:36:00,SystemResetWarning,0838.4,5.00,000.00,027.0,025.5,000.0,035.5,028.7,13.9,0001.7,0008.10,0005.07,0004.74
2023-10-15 04:37:00,SystemResetWarning,0838.4,5.00,000.00,027.0,025.5,000.0,035.5,028.7,13.9,0001.6,0008.26,0005.06,0004.74
2023-10-15 04:38:00,SystemResetWarning,0838.4,4.99,000.00,027.0,025.5,000.0,035.5,028.7,14.0,0002.1,0008.45,0005.01,0004.71
2023-10-15 04:39:00,SystemResetWarning,0838.4,5.00,000.00,027.0,025.5,000.0,035.5,028.7,14.0,0002.0,0008.37,0004.97,0004.67
2023-10-15 04:40:00,SystemResetWarning,0838.3,5.00,000.00,027.0,025.5,000.0,035.5,028.7,13.9,0000.4,0008.47,0004.96,0004.64
2023-10-15 04:41:00,SystemResetWarning,0838.2,5.00,000.00,027.0,025.5,000.0,035.5,028.7,13.9,0000.9,0008.93,0004.95,0004.60
2023-10-15 04:42:00,SystemResetWarning,0838.3,5.00,000.00,027.0,025.5,000.0,035.5,028.7,14.0,0001.4,0009.53,0004.95,0004.58
2023-10-15 04:43:00,SystemResetWarning,0838.3,5.00,000.00,027.0,025.5,000.0,035.5,028.7,14.0,0001.5,0010.01,0004.94,0004.57
2023-10-15 04:44:00,SystemResetWarning,0838.3,5.00,000.00,027.0,025.4,000.0,035.5,028.7,14.0,0001.5,0010.00,0004.92,0004.55
2023-10-15 04:45:00,SystemResetWarning,0838.3,5.00,000.00,027.0,025.4,000.0,035.5,028.7,14.0,0001.7,0009.92,0004.88,0004.53
2023-10-15 04:46:00,SystemResetWarning,0838.3,5.00,000.00,027.0,025.4,000.0,035.5,028.7,14.0,0001.8,0010.02,0004.88,0004.54
2023-10-15 04:47:00,SystemResetWarning,0838.4,5.00,000.00,027.0,025.4,000.0,035.5,028.6,14.0,0001.3,0010.08,0004.85,0004.53
2023-10-15 04:48:00,SystemResetWarning,0838.5,5.00,000.00,027.0,025.4,000.0,035.5,028.7,14.0,0001.9,0009.77,0004.83,0004.52
2023-10-15 04:49:00,SystemResetWarning,0838.4,5.00,000.00,027.0,025.4,000.0,035.5,028.7,14.0,0001.8,0009.33,0004.81,0004.52
2023-10-15 04:50:00,SystemResetWarning,0838.4,5.00,000.00,027.0,025.4,000.0,035.5,028.7,14.0,0002.1,0009.31,0004.82,0004.53
2023-10-15 04:51:00,SystemResetWarning,0838.4,5.00,000.00,027.0,025.4,000.0,035.5,028.6,14.0,0002.5,0009.20,0004.84,0004.55
2023-10-15 04:52:00,SystemResetWarning,0838.4,5.01,000.00,027.0,025.4,000.0,035.5,028.6,14.0,0003.1,0009.28,0004.83,0004.57
2023-10-15 04:53:00,SystemResetWarning,0838.5,5.00,000.00,027.0,025.4,000.0,035.5,028.6,14.0,0001.5,0009.50,0004.84,0004.57
2023-10-15 04:54:00,SystemResetWarning,0838.5,5.00,000.00,027.0,025.4,000.0,035.5,028.6,14.0,0000.0,0009.12,0004.81,0004.55
2023-10-15 04:55:00,SystemResetWarning,0838.4,5.00,000.00,027.0,025.4,000.0,035.5,028.6,14.0,0002.1,0009.14,0004.83,0004.55
2023-10-15 04:56:00,SystemResetWarning,0838.4,5.00,000.00,026.9,025.4,000.0,035.5,028.6,14.0,0003.3,0009.31,0004.87,0004.56
2023-10-15 04:57:00,SystemResetWarning,0838.4,5.00,000.00,026.9,025.3,000.0,035.5,028.6,14.0,0001.4,0009.30,0004.89,0004.56
2023-10-15 04:58:00,SystemResetWarning,0838.4,5.00,000.00,026.9,025.3,000.0,035.4,028.6,14.0,0000.0,0009.21,0004.91,0004.57
2023-10-15 04:59:00,SystemResetWarning,0838.4,4.99,000.00,026.9,025.3,000.0,035.4,028.6,14.1,0000.0,0009.18,0004.92,0004.59
